CW9561 Weather Reports


time (UTC)temp
C
wind
direction
speed
KPH
gust
KPH
rain 1hr
cm
rain 24hr
cm
rain mn
cm
humidity
%
barometer
mb
20260903182034 20 263 1.6 0.0 0.00 0.00 0.00 41 1025.2
20260903181034 19 214 1.6 0.0 0.00 0.00 0.00 42 1025.2
20260903180029 20 241 1.6 0.0 0.00 0.00 0.00 40 1025.3
20260903175024 19 154 1.6 0.0 0.00 0.00 0.00 42 1025.5
20260903173028 18 134 1.6 0.0 0.00 0.00 0.00 45 1025.4
20260903172026 18 169 1.6 0.0 0.00 0.00 0.00 46 1025.3
20260903170025 18 241 0.0 0.0 0.00 0.00 0.00 47 1025.3
20260903165039 17 159 1.6 0.0 0.00 0.00 0.00 48 1025.3
20260903164024 17 222 0.0 0.0 0.00 0.00 0.00 51 1025.2
20260903163041 17 192 3.2 0.0 0.00 0.00 0.00 52 1025.2
20260903162037 17 153 1.6 0.0 0.00 0.00 0.00 52 1025.1
20260903160031 17 155 1.6 0.0 0.00 0.00 0.00 57 1025.0
20260903155031 16 53 1.6 0.0 0.00 0.00 0.00 59 1024.9
20260903154029 15 206 4.8 0.0 0.00 0.00 0.00 66 1025.0
20260903152027 13 40 0.0 0.0 0.00 0.00 0.00 71 1025.1
20260903151028 13 17 0.0 0.0 0.00 0.00 0.00 74 1024.5
20260903150029 12 17 0.0 0.0 0.00 0.00 0.00 75 1024.6
20260903145026 12 355 0.0 0.0 0.00 0.00 0.00 76 1024.7
20260903144021 12 45 0.0 0.0 0.00 0.00 0.00 75 1025.3
20260903143022 12 281 0.0 0.0 0.00 0.00 0.00 72 1024.5
20260903142023 13 265 0.0 0.0 0.00 0.00 0.00 69 1024.5
20260903141021 13 264 0.0 0.0 0.00 0.00 0.00 71 1024.6
20260903140022 12 264 0.0 0.0 0.00 0.00 0.00 73 1024.6
20260903135041 11 265 0.0 0.0 0.00 0.00 0.00 79 1024.6
20260903134040 10 264 0.0 0.0 0.00 0.00 0.00 85 1024.6
20260903133021 8 264 0.0 0.0 0.00 0.00 0.00 86 1024.6
20260903132041 7 265 0.0 0.0 0.00 0.00 0.00 88 1024.4
20260903131036 6 265 3.2 0.0 0.00 0.00 0.00 88 1024.4
20260903130031 6 264 1.6 0.0 0.00 0.00 0.00 87 1024.4
20260903125034 6 265 0.0 0.0 0.00 0.00 0.00 87 1024.3
20260903124030 7 265 0.0 0.0 0.00 0.00 0.00 87 1024.3
20260903122027 7 264 0.0 0.0 0.00 0.00 0.00 86 1024.5
20260903121022 7 265 0.0 0.0 0.00 0.00 0.00 86 1024.4
20260903120023 7 265 0.0 0.0 0.00 0.00 0.00 85 1024.4
20260903115020 7 265 0.0 0.0 0.00 0.00 0.00 84 1024.3
20260903113037 7 265 0.0 0.0 0.00 0.00 0.00 84 1024.0
20260903111039 8 265 0.0 0.0 0.00 0.00 0.00 84 1024.1
20260903105036 7 265 0.0 0.0 0.00 0.00 0.00 86 1024.0
20260903104035 7 265 0.0 0.0 0.00 0.00 0.00 86 1024.0
20260903103036 7 265 0.0 0.0 0.00 0.00 0.00 86 1024.0
20260903102036 7 265 0.0 0.0 0.00 0.00 0.00 85 1024.1
20260903101035 7 264 0.0 0.0 0.00 0.00 0.00 84 1024.2
20260903100032 8 264 0.0 0.0 0.00 0.00 0.00 82 1024.2
20260903093028 8 265 0.0 0.0 0.00 0.00 0.00 81 1024.3
20260903092043 8 264 0.0 0.0 0.00 0.00 0.00 79 1024.4
20260903091023 10 265 0.0 0.0 0.00 0.00 0.00 76 1024.2
20260903090041 10 264 0.0 0.0 0.00 0.00 0.00 75 1024.4
20260903085037 10 265 0.0 0.0 0.00 0.00 0.00 76 1024.4
20260903084035 10 264 0.0 0.0 0.00 0.00 0.00 76 1024.5
20260903082032 10 265 0.0 0.0 0.00 0.00 0.00 75 1024.2
20260903081030 10 264 0.0 0.0 0.00 0.00 0.00 74 1024.3
20260903080026 10 265 0.0 0.0 0.00 0.00 0.00 75 1024.1
20260903075043 10 265 0.0 0.0 0.00 0.00 0.00 76 1024.1
20260903074043 9 265 0.0 0.0 0.00 0.00 0.00 76 1024.0
20260903072038 10 264 0.0 0.0 0.00 0.00 0.00 74 1024.3
20260903070031 10 265 0.0 0.0 0.00 0.00 0.00 74 1024.5
20260903065031 10 265 0.0 0.0 0.00 0.00 0.00 74 1024.8
20260903064029 10 264 0.0 0.0 0.00 0.00 0.00 75 1024.6
20260903063029 9 265 0.0 0.0 0.00 0.00 0.00 77 1024.5
20260903061024 10 264 0.0 0.0 0.00 0.00 0.00 76 1024.7
20260903060026 11 264 0.0 0.0 0.00 0.00 0.00 73 1024.9
20260903055025 11 265 0.0 0.0 0.00 0.00 0.23 72 1024.9
20260903054024 12 265 0.0 0.0 0.00 0.00 0.23 67 1024.8
20260903052018 12 265 1.6 0.0 0.00 0.00 0.23 67 1024.7
20260903051043 12 285 1.6 0.0 0.00 0.00 0.23 69 1024.6
20260903050021 12 275 0.0 0.0 0.00 0.00 0.23 71 1024.7
20260903044038 12 260 0.0 0.0 0.00 0.00 0.23 75 1024.8
20260903043033 11 90 0.0 0.0 0.00 0.00 0.23 79 1024.9
20260903040032 10 86 0.0 0.0 0.00 0.00 0.23 85 1024.3
20260903035027 11 86 0.0 0.0 0.00 0.00 0.23 85 1024.9
20260903034025 11 86 0.0 0.0 0.00 0.00 0.20 80 1025.0
20260903032028 10 86 0.0 0.0 0.00 0.00 0.20 81 1024.5
20260903031026 11 86 0.0 0.0 0.00 0.00 0.20 80 1024.7
20260903030024 11 86 0.0 0.0 0.00 0.00 0.20 79 1024.6
20260903025026 11 86 0.0 0.0 0.00 0.00 0.20 78 1024.5
20260903024022 11 86 0.0 0.0 0.00 0.00 0.20 78 1024.4
20260903023041 11 86 0.0 0.0 0.00 0.00 0.20 78 1024.5
20260903020037 12 86 0.0 0.0 0.00 0.00 0.20 77 1024.8
20260903015037 12 86 0.0 0.0 0.00 0.00 0.20 78 1024.9
20260903014033 12 86 0.0 0.0 0.00 0.00 0.20 77 1025.0
20260903013028 12 86 0.0 0.0 0.00 0.00 0.20 76 1024.8
20260903012022 12 86 0.0 0.0 0.00 0.00 0.20 75 1024.5
20260903011023 13 86 0.0 0.0 0.00 0.00 0.20 76 1024.2
20260903010020 14 86 0.0 0.0 0.00 0.00 0.20 72 1024.4
20260903005041 15 86 0.0 0.0 0.00 0.00 0.20 66 1024.4
20260903003022 15 86 0.0 0.0 0.00 0.00 0.20 64 1024.3
20260903002024 15 86 0.0 0.0 0.00 0.00 0.20 65 1024.3
20260903001025 15 86 0.0 0.0 0.00 0.00 0.20 68 1024.3
20260903000040 15 86 0.0 0.0 0.00 0.00 0.20 65 1024.9
20260902235039 15 86 0.0 0.0 0.00 0.00 0.20 69 1024.9
20260902234039 14 86 0.0 0.0 0.00 0.00 0.20 74 1024.9
20260902233035 14 86 0.0 0.0 0.00 0.00 0.20 70 1024.9
20260902232031 15 86 0.0 0.0 0.00 0.00 0.20 72 1025.1
20260902231028 14 86 0.0 0.0 0.00 0.00 0.20 72 1025.4
20260902230024 14 126 0.0 0.0 0.00 0.00 0.20 70 1025.4
20260902224028 15 304 1.6 0.0 0.00 0.00 0.20 70 1025.4
20260902223029 14 250 0.0 0.0 0.00 0.00 0.20 73 1025.2
20260902222025 13 256 0.0 0.0 0.00 0.00 0.20 81 1025.5
20260902221027 12 239 0.0 0.0 0.00 0.00 0.20 84 1025.8
20260902220025 12 286 1.6 0.0 0.00 0.00 0.20 83 1026.2
20260902215041 12 232 0.0 0.0 0.00 0.00 0.20 83 1026.0
20260902214039 12 266 0.0 0.0 0.00 0.00 0.20 86 1025.5
20260902213035 12 262 0.0 0.0 0.00 0.00 0.20 89 1025.5
20260902212035 11 303 0.0 0.0 0.00 0.00 0.20 87 1025.1
20260902211032 12 284 4.8 0.0 0.00 0.00 0.18 79 1025.5
20260902210028 16 310 4.8 0.0 0.00 0.00 0.00 62 1026.4
20260902205023 20 245 1.6 0.0 0.00 0.00 0.00 42 1024.9
20260902204022 21 186 1.6 0.0 0.00 0.00 0.00 40 1024.6
20260902203020 21 149 1.6 0.0 0.00 0.00 0.00 37 1024.7
20260902194035 21 192 3.2 0.0 0.00 0.00 0.00 40 1025.4
20260902193032 21 283 3.2 0.0 0.00 0.00 0.00 40 1025.5
20260902191031 20 159 0.0 0.0 0.00 0.00 0.00 46 1025.6
20260902190027 19 260 1.6 0.0 0.00 0.00 0.00 47 1025.7